Tracking 20721 objects as of 31-May-2020
HD Live streaming from Space Station
objects crossing your sky now
Track the CREW DRAGON and SPACE STATION

FENGYUN 1C DEB

Track FENGYUN 1C DEB now!
10-day predictions


NORAD ID: 35109
Int'l Code: 1999-025DKM
Perigee: 724.0 km
Apogee: 954.3 km
Inclination: 98.6 °
Period: 101.5 minutes
Semi major axis: 7210 km
RCS: 0.0098 m2 (small)
Launch date: May 10, 1999
Source: People's Republic of China (PRC)
Launch site: Taiyaun Space Center, China (TSC)

Note: This is SATELLITE DEBRIS
aabbcc
Your satellite tracking list
Your tracking list is empty




NASA's NSSDC Master Catalog

Two Line Element Set (TLE):
1 35109U 99025DKM 20151.01131711 +.00000047 +00000-0 +37779-4 0  9995
2 35109 098.6139 175.2810 0159683 114.9780 246.8077 14.18031397354746
Source of the keplerian elements: AFSPC